AirNav   Air Wisconsin pilot careers
 
 701 users online  

I74 Grimes Field Airport
Urbana, Ohio, USA

GOING TO URBANA?


FAA INFORMATION EFFECTIVE 19 JULY 2018

Location

FAA Identifier: I74
Lat/Long: 40-07-56.5387N / 083-45-14.6258W
40-07.942312N / 083-45.243763W
40.1323719 / -83.7540627
(estimated)
Elevation: 1067.9 ft. / 325.5 m (surveyed)
Variation: 04W (1985)
From city: 1 mile N of URBANA, OH
Time zone: UTC -4 (UTC -5 during Standard Time)
Zip code: 43078

Airport Operations

Airport use: Open to the public
Activation date: 07/1942
Control tower: no
ARTCC: INDIANAPOLIS CENTER
FSS: DAYTON FLIGHT SERVICE STATION
NOTAMs facility: DAY (NOTAM-D service available)
Attendance: TUE-SAT 0800-1630, ALL SUN-MON UNATNDD
Pattern altitude: 1867.9 ft. MSL
Wind indicator: lighted
Segmented circle: no
Lights: ACTVT MIRL RY 02/20, & REIL RYS 02 & 20 - CTAF.
Beacon: white-green (lighted land airport)
Operates sunset to sunrise.

Airport Communications

CTAF/UNICOM: 122.7
WX AWOS-3: 118.325 (937-484-5863)
COLUMBUS APPROACH: 118.425
COLUMBUS DEPARTURE: 118.425
CLASS C IC: 118.425
WX AWOS-3 at EDJ (15 nm N): 118.075 (937-599-4654)
WX AWOS-3PT at SGH (18 nm S): 134.975
WX AWOS-3PT at UYF (18 nm SE): 120.85 (740-852-2844)
WX AWOS-3 at SCA (19 nm W): 120.425 (937-492-3683)
WX AWOS-3 at MRT (19 nm E): 119.275 (937-644-2967)

Nearby radio navigation aids

VOR radial/distance  VOR name  Freq  Var
RODr130/16.2ROSEWOOD VORTAC117.5005W
SGHr017/18.2SPRINGFIELD VOR/DME113.2004W
DQNr078/30.3DAYTON VOR/DME114.5001W

 
NDB name  Hdg/Dist  Freq  Var  ID
CLARK COUNTY008/15.634104WCCJ -.-. -.-. .---
COURT HOUSE338/36.041406WCSS -.-. ... ...

Airport Services

Fuel available: 100LL JET-A+
Parking: hangars and tiedowns
Airframe service: MINOR
Powerplant service: MINOR

Runway Information

Runway 2/20

Dimensions: 4400 x 100 ft. / 1341 x 30 m
Surface: asphalt, in good condition
Runway edge lights: medium intensity
RUNWAY 2  RUNWAY 20
Latitude: 40-07.609412N40-08.299047N
Longitude: 083-45.357170W083-45.067192W
Elevation: 1057.8 ft.1067.5 ft.
Gradient: 0.2%0.2%
Traffic pattern: leftleft
Runway heading: 022 magnetic, 018 true202 magnetic, 198 true
Markings: nonprecision, in good conditionnonprecision, in good condition
Visual slope indicator: 4-light PAPI on right (3.00 degrees glide path)4-light PAPI on left (3.00 degrees glide path)
Runway end identifier lights: yesyes
Touchdown point: yes, no lightsyes, no lights
Obstructions: 65 ft. tree, 2150 ft. from runway, 50 ft. left of centerline, 30:1 slope to clear72 ft. tree, 2744 ft. from runway, 35:1 slope to clear

Runway 1/19

Dimensions: 3000 x 100 ft. / 914 x 30 m
Surface: turf, in good condition
RUNWAY 1  RUNWAY 19
Latitude: 40-07.680167N40-08.169500N
Longitude: 083-45.334333W083-45.245833W
Elevation: 1060.0 ft.1060.0 ft.
Traffic pattern: leftleft
Runway heading: 012 magnetic, 008 true192 magnetic, 188 true

Airport Ownership and Management from official FAA records

Ownership: Publicly-owned
Owner: CITY OF URBANA
205 S MAIN ST
URBANA, OH 43078
Phone (937) 652-4304
Manager: ELTON CULTICE
1636 N MAIN ST
URBANA, OH 43078
Phone 937-652-4319
AMGR CELL 937-508-5948.

Airport Operational Statistics

Aircraft based on the field: 48
Single engine airplanes: 32
Multi engine airplanes: 11
Helicopters: 1
Ultralights: 4
    
Aircraft operations: avg 64/day *
51% transient general aviation
46% local general aviation
2% military
2% air taxi
* for 12-month period ending 03 September 2016

Additional Remarks

COLUMBUS CD (614) 338-8537.

Instrument Procedures

NOTE: All procedures below are presented as PDF files. If you need a reader for these files, you should download the free Adobe Reader.

NOT FOR NAVIGATION. Please procure official charts for flight.
FAA instrument procedures published for use from 19 July 2018 at 0901Z to 16 August 2018 at 0900Z.

 
IAPs - Instrument Approach Procedures
RNAV (GPS) RWY 02 **CHANGED**   download (221KB)
RNAV (GPS) RWY 20 **CHANGED**   download (231KB)
VOR-A **CHANGED**   download (144KB)
NOTE: Special Alternate Minimums apply   download (21KB)
NOTE: Special Take-Off Minimums/Departure Procedures apply   download (164KB)

Other nearby airports with instrument procedures:

KEDJ - Bellefontaine Regional Airport (15 nm N)
KSGH - Springfield-Beckley Municipal Airport (18 nm S)
KUYF - Madison County Airport (18 nm SE)
KSCA - Sidney Municipal Airport (19 nm W)
KMRT - Union County Airport (19 nm E)
 
Loc | Ops | Rwys | IFR | FBO | Links
Com | Nav | Svcs | Stats | Notes


 
Area around I74 (Grimes Field Airport)
 
Road maps at: MapQuest Bing Google
 
Aerial photo
WARNING: Photo may not be current or correct
Aerial photo of I74 (Grimes Field Airport)
Photo by Michael Armstrong
Photo taken 11-Oct-2013
looking west.

Do you have a better or more recent aerial photo of Grimes Field Airport that you would like to share? If so, please send us your photo.

 
Sectional chart

 
Airport diagram
CAUTION: Diagram may not be current
Diagram of I74 (Grimes Field Airport)
 
Airport distance calculator
Flying to Grimes Field Airport? Find the distance to fly.

From to I74

Sunrise and sunset
Times for 15-Aug-2018
 Local
(UTC-4)
 Zulu
(UTC)
Morning civil twilight06:1810:18
Sunrise06:4710:47
Sunset20:3200:32
Evening civil twilight21:0101:01

Current date and time
Zulu (UTC)  15-Aug-2018 04:00:53
Local (UTC-4)  15-Aug-2018 00:00:53
 
METAR
KEDJ 
15nm N 
150335Z AUTO 14003KT 10SM CLR 18/18 A3004 RMK AO1
KUYF 
18nm SE 
150335Z AUTO 22004KT 7SM CLR 19/17 A3004 RMK AO2
KSGH 
19nm S 
150256Z AUTO 00000KT 10SM CLR 19/19 A3004 RMK AO2 SLP167 T01940194 53008 $
KMRT 
19nm E 
150335Z AUTO 24003KT 10SM CLR 20/18 A3003 RMK AO2 T01950182
KFFO 
23nm SW 
150256Z AUTO 00000KT 10SM CLR 21/19 A3002 RMK AO2 SLPNO T02130188 53007
KDAY 
25nm SW 
150256Z 00000KT 10SM BKN250 24/18 A3004 RMK AO2 SLP163 T02390183 53007
TAF
KFFO 
23nm SW 
141900Z 1419/1601 26009KT 9999 BKN050 QNH3001INS BECMG 1502/1503 19006KT 9999 SCT050 BKN250 QNH3005INS BECMG 1514/1515 23012KT 9999 BKN050 BKN200 QNH3005INS TEMPO 1519/1523 22015G25KT 6000 -TSRA OVC040CB TX29/1420Z TN19/1510Z
KDAY 
25nm SW 
141737Z 1418/1518 27008KT P6SM SCT050 FM150100 21003KT P6SM SCT250 FM151600 22012KT P6SM BKN250
NOTAMs
Click for the latest NOTAMs
NOTAMs are issued by the DoD/FAA and will open in a separate window not controlled by AirNav.

 

 
 

FBO, Fuel Providers, and Aircraft Ground Support

  
 Business Name 
 
 Contact 
 
 Services / Description 
 
Fuel Prices
 
Comments
  
Grimes Field UNICOM 122.70
937-652-4319
937-508-5948
[web site]
[email]
Airport management, Aviation fuel, Aircraft parking (ramp or tiedown), Catering, Rental cars, Courtesy transportation, Pilots lounge / snooze room, Public telephone, ...
More info and photos of Grimes Field
Phillips 66
100LL Jet A
SS $4.75 $3.75 
 Updated 08-Aug-2018
 
   3 read write
SS=Self service
Update Fuel Prices
 

Where to Eat: Catering, Restaurants, Food shops

  
 Business Name 
 
 Contact 
 
 Services / Description 
 
Distance
 
Comments
  
The Airport Cafe 937-652-2010
no information available

If you are affiliated with The Airport Cafe and would like to show here your services, contact info, web link, logo, and more, click here
on airport  
   2 read write
 

Would you like to see your business listed on this page?

 If your business provides an interesting product or service to pilots, flight crews, aircraft, or users of the Grimes Field Airport, you should consider listing it here.  To start the listing process, click on the button below
 
Add a business
 

Other Pages about Grimes Field Airport

www.grimesfield.com
 
Update a link
 
Copyright © AirNav, LLC. All rights reserved. Privacy Policy  Contact